Plymouth, MA

2:18 AM EDT on April 24, 2017 (GMT -0400)
Plymouth Municipal

Weather History for KPYM - September, 2013

Change the Weather History Date:

Wednesday, September 4, 2013

  Actual Average Record
Temperature  
Mean Temperature 70 °F -  
Max Temperature 81 °F 74 °F 93 °F (1973)
Min Temperature 59 °F 55 °F 45 °F (1965)
Cooling Degree Days 4    
Growing Degree Days 20 (Base 50)    
Moisture  
Dew Point 57 °F    
Average Humidity 67    
Maximum Humidity 87    
Minimum Humidity 42    
Precipitation  
Precipitation 0.00 in - - ()
Sea Level Pressure  
Sea Level Pressure 29.88 in    
Wind  
Wind Speed 7 mph (West)    
Max Wind Speed 14 mph    
Max Gust Speed -    
Visibility 10 miles    
Events      
Averages and records for this station are not official NWS values.
T = Trace of Precipitation, MM = Missing Value Source: NWS Daily Summary

Daily Weather History Graph

Daily Weather History Graph

Search for Another Location

Airport or City:

Trip Planner

Search our weather history database for the weather conditions in past years. The results will help you decide how hot, cold, wet, or windy it might be!

Date:

Astronomy

Sep. 04, 2013 Rise Set
Actual Time 6:11 AM EDT 7:11 PM EDT
Civil Twilight 5:43 AM EDT 7:39 PM EDT
Nautical Twilight 5:09 AM EDT 8:13 PM EDT
Astronomical Twilight 4:34 AM EDT 8:48 PM EDT
Moon 5:20 AM EDT (9/4) 6:28 PM EDT (9/4)
Length of Visible Light 13h 56m
Length of Day
12h 59m
Waning Crescent, 1% of the Moon is Illuminated
Sep 4
Waning Crescent
Sep 5
New
Sep 12
First Quarter
Sep 19
Full
Sep 26
Last Quarter

Hourly Weather History & Observations

Time (EDT) Temp. Heat Index Dew Point Humidity Pressure Visibility Wind Dir Wind Speed Gust Speed Precip Events Conditions
12:52 AM 64.0 °F - 60.1 °F 87% 29.82 in 10.0 mi West 6.9 mph - N/A   Clear
1:52 AM 63.0 °F - 57.9 °F 84% 29.82 in 10.0 mi West 4.6 mph - N/A   Clear
2:52 AM 62.1 °F - 57.0 °F 84% 29.82 in 10.0 mi West 5.8 mph - N/A   Clear
3:52 AM 61.0 °F - 55.9 °F 83% 29.83 in 10.0 mi West 6.9 mph - N/A   Clear
4:52 AM 61.0 °F - 55.9 °F 83% 29.84 in 10.0 mi West 6.9 mph - N/A   Clear
5:52 AM 60.1 °F - 55.9 °F 86% 29.86 in 10.0 mi West 5.8 mph - N/A   Clear
6:52 AM 59.0 °F - 55.0 °F 87% 29.88 in 10.0 mi West 5.8 mph - N/A   Clear
7:52 AM 62.1 °F - 57.0 °F 84% 29.89 in 10.0 mi West 10.4 mph - N/A   Clear
8:52 AM 66.9 °F - 57.9 °F 73% 29.90 in 10.0 mi WNW 8.1 mph - N/A   Clear
9:52 AM 71.1 °F - 59.0 °F 66% 29.91 in 10.0 mi WNW 6.9 mph - N/A   Clear
10:52 AM 73.9 °F - 57.0 °F 55% 29.90 in 10.0 mi WNW 8.1 mph - N/A   Clear
11:52 AM 77.0 °F - 57.9 °F 52% 29.90 in 10.0 mi West 9.2 mph - N/A   Clear
12:52 PM 78.1 °F - 55.9 °F 46% 29.88 in 10.0 mi WNW 10.4 mph - N/A   Clear
1:52 PM 78.1 °F - 55.0 °F 45% 29.88 in 10.0 mi WSW 11.5 mph - N/A   Clear
2:52 PM 80.1 °F 80.1 °F 55.0 °F 42% 29.88 in 10.0 mi West 13.8 mph - N/A   Clear
3:52 PM 80.1 °F 80.1 °F 55.0 °F 42% 29.88 in 10.0 mi West 11.5 mph - N/A   Clear
4:52 PM 79.0 °F - 55.0 °F 44% 29.88 in 10.0 mi West 10.4 mph - N/A   Clear
5:52 PM 78.1 °F - 55.9 °F 46% 29.87 in 10.0 mi West 11.5 mph - N/A   Clear
6:52 PM 73.9 °F - 55.9 °F 53% 29.88 in 10.0 mi West 8.1 mph - N/A   Clear
7:52 PM 71.1 °F - 55.9 °F 59% 29.91 in 10.0 mi SSW 3.5 mph - N/A   Clear
8:52 PM 68.0 °F - 57.0 °F 68% 29.92 in 10.0 mi SSW 3.5 mph - N/A   Partly Cloudy
9:52 PM 66.9 °F - 57.0 °F 70% 29.93 in 10.0 mi SSW 4.6 mph - N/A   Mostly Cloudy
10:52 PM 64.0 °F - 57.9 °F 80% 29.94 in 10.0 mi South 3.5 mph - N/A   Partly Cloudy
11:52 PM 64.9 °F - 59.0 °F 81% 29.94 in 10.0 mi Calm Calm - N/A   Mostly Cloudy